QPF
0.01 0.01 0.00 0.00 0.00 0.00 0.00 0.00 0.00 0.00 0.00 0.00 0.00 0.00 0.00 0.00 0.00 0.00 0.00 0.00 0.00 0.00 0.00 0.01 0.00 0.00 0.01 0.01 0.01 0.02 0.02 0.02 0.02 0.03 0.03 0.04 0.05 0.04 0.04 0.03 0.02 0.02 0.03 0.03
0.02 0.01 0.00 0.00 0.00 0.01 0.01 0.01 0.00 0.00 0.00 0.00 0.00 0.00 0.00 0.00 0.00 0.00 0.00 0.00 0.00 0.01 0.01 0.01 0.01 0.01 0.01 0.01 0.01 0.01 0.01 0.02 0.03 0.03 0.03 0.03 0.04 0.04 0.04 0.03 0.02 0.02 0.02 0.03
0.02 0.01 0.00 0.01 0.01 0.01 0.01 0.01 0.00 0.00 0.01 0.00 0.00 0.00 0.00 0.00 0.01 0.00 0.00 0.00 0.00 0.01 0.01 0.01 0.01 0.01 0.01 0.01 0.01 0.01 0.01 0.01 0.02 0.03 0.03 0.04 0.04 0.04 0.03 0.03 0.02 0.01 0.01 0.02
0.02 0.01 0.00 0.01 0.01 0.01 0.02 0.01 0.01 0.01 0.01 0.01 0.00 0.00 0.00 0.01 0.01 0.00 0.00 0.00 0.00 0.01 0.01 0.01 0.01 0.01 0.01 0.01 0.01 0.01 0.01 0.01 0.02 0.03 0.04 0.04 0.04 0.03 0.03 0.02 0.02 0.02 0.02 0.02
0.01 0.01 0.01 0.01 0.01 0.01 0.01 0.01 0.01 0.02 0.02 0.02 0.01 0.01 0.01 0.01 0.01 0.01 0.01 0.01 0.01 0.01 0.01 0.01 0.01 0.01 0.01 0.01 0.01 0.01 0.01 0.01 0.02 0.02 0.03 0.04 0.04 0.04 0.04 0.03 0.02 0.02 0.02 0.02
0.01 0.01 0.01 0.01 0.01 0.01 0.01 0.02 0.02 0.03 0.04 0.04 0.01 0.02 0.01 0.01 0.02 0.01 0.01 0.01 0.01 0.01 0.01 0.01 0.00 0.01 0.01 0.01 0.01 0.01 0.01 0.01 0.01 0.02 0.03 0.03 0.04 0.04 0.04 0.04 0.03 0.02 0.02 0.01
0.01 0.01 0.01 0.01 0.01 0.01 0.02 0.03 0.05 0.05 0.05 0.03 0.01 0.01 0.02 0.02 0.02 0.01 0.01 0.01 0.01 0.01 0.01 0.01 0.01 0.01 0.01 0.01 0.01 0.01 0.01 0.01 0.01 0.02 0.03 0.03 0.04 0.04 0.03 0.03 0.03 0.03 0.02 0.02
0.01 0.01 0.01 0.01 0.02 0.02 0.02 0.03 0.04 0.04 0.02 0.01 0.01 0.01 0.02 0.02 0.02 0.01 0.01 0.01 0.01 0.01 0.01 0.01 0.01 0.01 0.01 0.01 0.01 0.01 0.01 0.01 0.01 0.02 0.03 0.03 0.03 0.03 0.03 0.03 0.03 0.03 0.03 0.02
0.03 0.01 0.00 0.00 0.01 0.01 0.02 0.02 0.03 0.04 0.03 0.02 0.01 0.02 0.02 0.01 0.01 0.01 0.01 0.01 0.01 0.00 0.01 0.01 0.01 0.01 0.01 0.02 0.01 0.01 0.01 0.01 0.01 0.01 0.02 0.03 0.03 0.03 0.03 0.03 0.03 0.03 0.03 0.03
0.03 0.03 0.01 0.00 0.01 0.01 0.01 0.02 0.03 0.06 0.06 0.04 0.03 0.02 0.02 0.01 0.01 0.01 0.01 0.01 0.01 0.00 0.00 0.00 0.01 0.01 0.01 0.01 0.02 0.02 0.01 0.01 0.01 0.01 0.02 0.03 0.03 0.03 0.03 0.03 0.03 0.03 0.03 0.03
0.03 0.03 0.01 0.00 0.01 0.02 0.01 0.02 0.03 0.04 0.05 0.05 0.03 0.02 0.03 0.02 0.02 0.01 0.01 0.01 0.01 0.01 0.01 0.01 0.01 0.01 0.01 0.01 0.01 0.01 0.02 0.02 0.02 0.02 0.02 0.03 0.03 0.03 0.04 0.04 0.03 0.03 0.03 0.03
0.02 0.04 0.03 0.01 0.01 0.01 0.01 0.02 0.02 0.04 0.04 0.03 0.04 0.04 0.02 0.02 0.02 0.02 0.01 0.01 0.01 0.01 0.01 0.01 0.01 0.01 0.01 0.02 0.02 0.02 0.02 0.02 0.02 0.02 0.02 0.02 0.02 0.03 0.03 0.04 0.04 0.03 0.03 0.03
0.04 0.05 0.04 0.02 0.02 0.01 0.02 0.01 0.01 0.03 0.04 0.03 0.04 0.04 0.02 0.02 0.02 0.01 0.01 0.02 0.02 0.01 0.01 0.01 0.01 0.02 0.02 0.02 0.02 0.02 0.02 0.02 0.02 0.02 0.02 0.02 0.02 0.03 0.03 0.03 0.03 0.03 0.02 0.02
0.05 0.04 0.03 0.03 0.03 0.02 0.02 0.02 0.02 0.04 0.06 0.04 0.03 0.02 0.02 0.02 0.02 0.02 0.02 0.02 0.04 0.03 0.02 0.02 0.02 0.02 0.02 0.02 0.02 0.02 0.02 0.02 0.02 0.02 0.02 0.02 0.03 0.03 0.03 0.02 0.02 0.02 0.02 0.02
0.02 0.03 0.02 0.01 0.01 0.01 0.01 0.02 0.02 0.03 0.04 0.04 0.03 0.02 0.03 0.03 0.03 0.03 0.02 0.02 0.03 0.03 0.03 0.03 0.02 0.02 0.01 0.01 0.02 0.02 0.02 0.02 0.02 0.02 0.02 0.02 0.02 0.02 0.03 0.03 0.02 0.02 0.02 0.02
0.01 0.02 0.02 0.01 0.01 0.00 0.01 0.01 0.02 0.02 0.02 0.03 0.02 0.02 0.02 0.03 0.03 0.03 0.03 0.02 0.02 0.03 0.03 0.03 0.03 0.03 0.02 0.01 0.01 0.01 0.02 0.02 0.02 0.02 0.02 0.02 0.02 0.02 0.03 0.03 0.03 0.03 0.02 0.02
0.01 0.01 0.02 0.01 0.01 0.01 0.02 0.02 0.02 0.03 0.03 0.03 0.03 0.03 0.02 0.02 0.03 0.05 0.05 0.03 0.02 0.02 0.02 0.02 0.02 0.03 0.03 0.02 0.02 0.02 0.02 0.02 0.02 0.02 0.02 0.02 0.02 0.02 0.03 0.04 0.03 0.03 0.02 0.02
0.01 0.01 0.01 0.01 0.01 0.02 0.03 0.02 0.02 0.02 0.03 0.03 0.03 0.03 0.02 0.02 0.03 0.05 0.05 0.04 0.03 0.02 0.01 0.02 0.01 0.02 0.02 0.02 0.03 0.03 0.02 0.02 0.02 0.02 0.02 0.02 0.02 0.03 0.03 0.03 0.03 0.03 0.02 0.02
0.01 0.01 0.01 0.01 0.01 0.02 0.02 0.01 0.02 0.02 0.03 0.03 0.02 0.02 0.02 0.02 0.02 0.03 0.02 0.02 0.02 0.02 0.02 0.01 0.01 0.02 0.02 0.02 0.03 0.03 0.03 0.03 0.03 0.02 0.02 0.02 0.02 0.02 0.02 0.03 0.03 0.02 0.02 0.02
0.01 0.01 0.02 0.02 0.02 0.02 0.02 0.01 0.02 0.03 0.03 0.02 0.02 0.02 0.02 0.01 0.02 0.02 0.02 0.02 0.02 0.02 0.02 0.02 0.02 0.02 0.02 0.02 0.02 0.02 0.02 0.02 0.03 0.02 0.02 0.02 0.02 0.02 0.02 0.02 0.02 0.02 0.02 0.02
0.01 0.02 0.02 0.02 0.02 0.02 0.02 0.01 0.01 0.03 0.04 0.02 0.02 0.02 0.02 0.02 0.02 0.02 0.02 0.02 0.03 0.03 0.02 0.02 0.02 0.02 0.02 0.02 0.01 0.01 0.01 0.02 0.02 0.02 0.02 0.02 0.02 0.02 0.02 0.02 0.02 0.02 0.02 0.02
0.01 0.01 0.02 0.02 0.02 0.03 0.02 0.01 0.02 0.03 0.02 0.02 0.02 0.02 0.02 0.02 0.02 0.02 0.02 0.03 0.02 0.02 0.02 0.02 0.01 0.01 0.01 0.01 0.01 0.01 0.01 0.01 0.01 0.02 0.02 0.01 0.02 0.02 0.02 0.02 0.02 0.02 0.02 0.02
0.01 0.01 0.02 0.02 0.02 0.03 0.02 0.02 0.02 0.02 0.02 0.02 0.02 0.02 0.02 0.02 0.02 0.02 0.02 0.02 0.02 0.02 0.02 0.02 0.01 0.01 0.01 0.01 0.01 0.01 0.01 0.01 0.01 0.01 0.02 0.02 0.02 0.02 0.02 0.02 0.02 0.02 0.02 0.02
0.01 0.01 0.01 0.01 0.01 0.01 0.01 0.01 0.01 0.01 0.02 0.02 0.02 0.02 0.02 0.02 0.02 0.02 0.01 0.01 0.01 0.01 0.01 0.01 0.01 0.01 0.01 0.01 0.01 0.01 0.01 0.01 0.01 0.01 0.01 0.02 0.02 0.02 0.03 0.02 0.02 0.02 0.01 0.01
0.01 0.01 0.01 0.01 0.01 0.01 0.01 0.01 0.01 0.01 0.01 0.01 0.01 0.01 0.02 0.02 0.02 0.02 0.02 0.02 0.01 0.01 0.01 0.01 0.01 0.01 0.01 0.01 0.01 0.01 0.01 0.01 0.01 0.01 0.01 0.02 0.02 0.02 0.03 0.02 0.02 0.01 0.01 0.01
0.01 0.02 0.02 0.01 0.01 0.01 0.01 0.01 0.01 0.01 0.01 0.01 0.01 0.01 0.02 0.02 0.02 0.02 0.02 0.02 0.02 0.01 0.01 0.01 0.01 0.01 0.01 0.01 0.01 0.01 0.01 0.01 0.01 0.01 0.01 0.02 0.02 0.02 0.02 0.02 0.02 0.01 0.01 0.01
MSLP
1014.50 1015.01 1015.33 1015.41 1015.26 1014.97 1014.65 1014.46 1014.56 1015.05 1015.98 1017.33 1019.01 1020.88 1022.76 1024.47 1025.87 1026.88 1027.48 1027.70 1027.63 1027.36 1026.98 1026.56 1026.14 1025.72 1025.29 1024.82 1024.29 1023.73 1023.15 1022.63 1022.22 1021.98 1021.95 1022.12 1022.47 1022.95 1023.47 1023.96 1024.38 1024.69 1024.90 1025.04
1014.75 1015.21 1015.43 1015.39 1015.11 1014.70 1014.29 1014.08 1014.22 1014.83 1015.95 1017.56 1019.54 1021.71 1023.88 1025.84 1027.45 1028.61 1029.31 1029.58 1029.52 1029.24 1028.84 1028.39 1027.95 1027.50 1027.02 1026.49 1025.90 1025.24 1024.55 1023.90 1023.36 1022.98 1022.82 1022.89 1023.15 1023.56 1024.03 1024.49 1024.88 1025.17 1025.36 1025.47
1014.92 1015.28 1015.38 1015.19 1014.77 1014.24 1013.75 1013.52 1013.71 1014.45 1015.76 1017.62 1019.87 1022.32 1024.76 1026.96 1028.76 1030.05 1030.83 1031.15 1031.10 1030.81 1030.39 1029.94 1029.49 1029.04 1028.58 1028.06 1027.46 1026.77 1026.04 1025.31 1024.67 1024.17 1023.89 1023.82 1023.96 1024.26 1024.64 1025.02 1025.35 1025.59 1025.73 1025.80
1015.00 1015.24 1015.20 1014.86 1014.31 1013.67 1013.12 1012.88 1013.14 1014.00 1015.50 1017.57 1020.07 1022.78 1025.46 1027.86 1029.82 1031.23 1032.08 1032.42 1032.38 1032.08 1031.65 1031.20 1030.77 1030.37 1029.96 1029.50 1028.95 1028.30 1027.57 1026.82 1026.11 1025.52 1025.10 1024.89 1024.88 1025.03 1025.27 1025.53 1025.77 1025.92 1026.00 1026.02
1015.04 1015.14 1014.95 1014.49 1013.82 1013.10 1012.52 1012.30 1012.63 1013.62 1015.29 1017.55 1020.26 1023.17 1026.04 1028.61 1030.69 1032.19 1033.09 1033.46 1033.42 1033.12 1032.69 1032.26 1031.87 1031.52 1031.19 1030.82 1030.37 1029.80 1029.12 1028.37 1027.62 1026.95 1026.41 1026.04 1025.86 1025.83 1025.91 1026.03 1026.14 1026.20 1026.20 1026.15
1015.09 1015.06 1014.75 1014.18 1013.44 1012.68 1012.11 1011.95 1012.36 1013.46 1015.26 1017.67 1020.52 1023.58 1026.57 1029.24 1031.41 1032.97 1033.91 1034.31 1034.28 1033.99 1033.58 1033.17 1032.83 1032.55 1032.32 1032.05 1031.70 1031.23 1030.61 1029.89 1029.12 1028.38 1027.72 1027.21 1026.85 1026.64 1026.54 1026.51 1026.49 1026.44 1026.36 1026.25
1015.23 1015.10 1014.70 1014.07 1013.31 1012.58 1012.06 1011.96 1012.47 1013.66 1015.55 1018.04 1020.96 1024.07 1027.11 1029.82 1032.02 1033.62 1034.59 1035.01 1035.01 1034.75 1034.37 1034.01 1033.72 1033.51 1033.36 1033.19 1032.93 1032.54 1031.99 1031.31 1030.53 1029.72 1028.96 1028.31 1027.78 1027.40 1027.14 1026.96 1026.82 1026.68 1026.53 1026.36
1015.54 1015.33 1014.90 1014.28 1013.57 1012.91 1012.48 1012.48 1013.07 1014.32 1016.24 1018.74 1021.63 1024.71 1027.71 1030.39 1032.57 1034.17 1035.16 1035.61 1035.66 1035.44 1035.11 1034.80 1034.56 1034.42 1034.32 1034.22 1034.03 1033.71 1033.20 1032.53 1031.74 1030.88 1030.04 1029.26 1028.60 1028.08 1027.68 1027.38 1027.14 1026.93 1026.73 1026.53
1016.03 1015.81 1015.42 1014.87 1014.27 1013.75 1013.46 1013.58 1014.24 1015.52 1017.41 1019.82 1022.60 1025.54 1028.41 1030.98 1033.10 1034.66 1035.65 1036.14 1036.24 1036.09 1035.83 1035.58 1035.39 1035.27 1035.21 1035.14 1034.97 1034.67 1034.18 1033.51 1032.70 1031.80 1030.89 1030.03 1029.27 1028.63 1028.13 1027.75 1027.44 1027.19 1026.96 1026.74
1016.71 1016.54 1016.24 1015.85 1015.43 1015.10 1014.99 1015.25 1015.98 1017.25 1019.05 1021.31 1023.89 1026.61 1029.27 1031.66 1033.64 1035.13 1036.11 1036.64 1036.80 1036.73 1036.54 1036.34 1036.18 1036.08 1036.01 1035.92 1035.73 1035.41 1034.90 1034.20 1033.37 1032.44 1031.48 1030.57 1029.75 1029.05 1028.49 1028.06 1027.72 1027.44 1027.20 1026.98
1017.53 1017.47 1017.34 1017.16 1016.99 1016.90 1017.01 1017.41 1018.22 1019.46 1021.13 1023.18 1025.49 1027.92 1030.30 1032.45 1034.25 1035.64 1036.59 1037.14 1037.36 1037.36 1037.24 1037.08 1036.94 1036.82 1036.71 1036.55 1036.30 1035.91 1035.35 1034.62 1033.75 1032.80 1031.83 1030.89 1030.04 1029.33 1028.75 1028.29 1027.94 1027.66 1027.42 1027.19
1018.40 1018.50 1018.59 1018.67 1018.79 1018.99 1019.34 1019.92 1020.79 1022.00 1023.53 1025.34 1027.36 1029.46 1031.51 1033.39 1034.98 1036.23 1037.13 1037.68 1037.95 1038.00 1037.93 1037.80 1037.65 1037.48 1037.30 1037.05 1036.70 1036.22 1035.59 1034.81 1033.91 1032.95 1031.98 1031.05 1030.21 1029.50 1028.92 1028.47 1028.12 1027.83 1027.58 1027.34
1019.27 1019.55 1019.88 1020.26 1020.69 1021.19 1021.81 1022.58 1023.54 1024.72 1026.11 1027.70 1029.41 1031.18 1032.90 1034.48 1035.85 1036.95 1037.75 1038.28 1038.57 1038.66 1038.62 1038.49 1038.30 1038.07 1037.79 1037.43 1036.96 1036.38 1035.67 1034.84 1033.92 1032.96 1032.01 1031.11 1030.30 1029.61 1029.05 1028.60 1028.25 1027.94 1027.67 1027.39
1020.06 1020.54 1021.12 1021.79 1022.54 1023.35 1024.24 1025.21 1026.28 1027.46 1028.75 1030.13 1031.57 1033.02 1034.43 1035.73 1036.86 1037.78 1038.48 1038.96 1039.23 1039.32 1039.27 1039.12 1038.88 1038.56 1038.17 1037.70 1037.12 1036.45 1035.66 1034.79 1033.87 1032.92 1032.00 1031.14 1030.37 1029.72 1029.17 1028.72 1028.35 1028.01 1027.69 1027.35
1020.79 1021.44 1022.25 1023.20 1024.24 1025.35 1026.50 1027.68 1028.87 1030.07 1031.29 1032.51 1033.73 1034.91 1036.04 1037.07 1037.97 1038.71 1039.29 1039.68 1039.90 1039.96 1039.87 1039.67 1039.36 1038.96 1038.47 1037.89 1037.22 1036.46 1035.63 1034.74 1033.82 1032.90 1032.03 1031.21 1030.49 1029.85 1029.32 1028.85 1028.44 1028.05 1027.66 1027.24
1021.50 1022.30 1023.30 1024.48 1025.77 1027.14 1028.53 1029.89 1031.21 1032.47 1033.65 1034.76 1035.80 1036.77 1037.66 1038.45 1039.14 1039.70 1040.12 1040.40 1040.53 1040.53 1040.38 1040.11 1039.73 1039.25 1038.67 1038.01 1037.27 1036.46 1035.60 1034.72 1033.82 1032.95 1032.12 1031.35 1030.66 1030.05 1029.51 1029.02 1028.56 1028.10 1027.63 1027.12
1022.28 1023.18 1024.33 1025.68 1027.17 1028.74 1030.32 1031.85 1033.28 1034.59 1035.77 1036.81 1037.72 1038.52 1039.21 1039.79 1040.28 1040.65 1040.92 1041.07 1041.09 1040.99 1040.76 1040.42 1039.97 1039.42 1038.79 1038.07 1037.30 1036.47 1035.62 1034.75 1033.90 1033.07 1032.28 1031.56 1030.90 1030.30 1029.74 1029.22 1028.71 1028.18 1027.63 1027.03
1023.23 1024.20 1025.44 1026.90 1028.52 1030.22 1031.93 1033.57 1035.09 1036.45 1037.62 1038.62 1039.43 1040.10 1040.62 1041.02 1041.32 1041.52 1041.62 1041.62 1041.51 1041.31 1041.00 1040.58 1040.08 1039.48 1038.82 1038.09 1037.31 1036.50 1035.68 1034.85 1034.04 1033.26 1032.51 1031.82 1031.17 1030.57 1030.00 1029.44 1028.88 1028.29 1027.67 1026.99
1024.44 1025.45 1026.73 1028.24 1029.92 1031.68 1033.45 1035.15 1036.70 1038.07 1039.23 1040.17 1040.91 1041.45 1041.84 1042.08 1042.20 1042.23 1042.17 1042.02 1041.79 1041.48 1041.09 1040.62 1040.07 1039.46 1038.80 1038.09 1037.34 1036.57 1035.78 1035.00 1034.23 1033.48 1032.77 1032.09 1031.45 1030.84 1030.25 1029.66 1029.06 1028.43 1027.75 1027.03
1025.94 1026.98 1028.27 1029.79 1031.46 1033.21 1034.97 1036.65 1038.18 1039.51 1040.62 1041.50 1042.14 1042.57 1042.82 1042.92 1042.89 1042.76 1042.55 1042.27 1041.92 1041.52 1041.06 1040.56 1040.00 1039.40 1038.76 1038.09 1037.39 1036.67 1035.93 1035.19 1034.45 1033.73 1033.03 1032.35 1031.70 1031.07 1030.46 1029.85 1029.23 1028.57 1027.88 1027.14
1027.73 1028.78 1030.07 1031.55 1033.16 1034.84 1036.52 1038.11 1039.55 1040.80 1041.81 1042.58 1043.12 1043.43 1043.56 1043.52 1043.36 1043.10 1042.76 1042.37 1041.94 1041.47 1040.98 1040.47 1039.92 1039.36 1038.77 1038.15 1037.50 1036.83 1036.14 1035.42 1034.70 1033.98 1033.26 1032.57 1031.90 1031.25 1030.62 1030.00 1029.37 1028.72 1028.03 1027.30
1029.71 1030.79 1032.06 1033.47 1034.99 1036.55 1038.08 1039.53 1040.82 1041.92 1042.79 1043.43 1043.84 1044.04 1044.05 1043.90 1043.62 1043.26 1042.84 1042.37 1041.89 1041.39 1040.90 1040.39 1039.89 1039.37 1038.84 1038.28 1037.69 1037.06 1036.39 1035.69 1034.97 1034.23 1033.49 1032.77 1032.06 1031.39 1030.75 1030.12 1029.50 1028.87 1028.21 1027.51
1031.77 1032.89 1034.12 1035.46 1036.85 1038.24 1039.59 1040.83 1041.93 1042.84 1043.54 1044.03 1044.30 1044.38 1044.29 1044.05 1043.70 1043.28 1042.81 1042.32 1041.82 1041.33 1040.85 1040.39 1039.94 1039.48 1039.00 1038.50 1037.95 1037.36 1036.71 1036.00 1035.26 1034.50 1033.72 1032.96 1032.23 1031.53 1030.88 1030.26 1029.65 1029.05 1028.43 1027.76
1033.79 1034.93 1036.13 1037.37 1038.61 1039.81 1040.94 1041.96 1042.83 1043.52 1044.04 1044.36 1044.50 1044.47 1044.30 1044.01 1043.63 1043.19 1042.71 1042.23 1041.76 1041.31 1040.88 1040.47 1040.07 1039.67 1039.25 1038.79 1038.28 1037.70 1037.06 1036.35 1035.59 1034.79 1033.99 1033.20 1032.44 1031.73 1031.07 1030.45 1029.87 1029.30 1028.72 1028.10
1035.63 1036.79 1037.94 1039.06 1040.14 1041.14 1042.03 1042.81 1043.44 1043.92 1044.25 1044.42 1044.44 1044.34 1044.12 1043.81 1043.43 1043.02 1042.59 1042.16 1041.74 1041.35 1040.98 1040.62 1040.28 1039.93 1039.55 1039.12 1038.63 1038.06 1037.42 1036.70 1035.93 1035.12 1034.30 1033.49 1032.72 1032.01 1031.36 1030.76 1030.20 1029.66 1029.11 1028.53
1037.21 1038.35 1039.42 1040.42 1041.32 1042.11 1042.78 1043.32 1043.73 1044.01 1044.18 1044.23 1044.17 1044.02 1043.80 1043.51 1043.19 1042.83 1042.47 1042.11 1041.76 1041.43 1041.12 1040.81 1040.51 1040.19 1039.83 1039.42 1038.94 1038.39 1037.75 1037.04 1036.27 1035.47 1034.66 1033.87 1033.12 1032.42 1031.79 1031.21 1030.67 1030.16 1029.63 1029.07
Thickness
5563 5554 5554 5559 5559 5560 5557 5556 5557 5562 5564 5556 5552 5556 5562 5560 5556 5554 5552 5552 5552 5554 5554 5551 5550 5549 5547 5546 5545 5544 5541 5539 5537 5534 5532 5529 5527 5526 5526 5526 5526 5526 5525 5525
5544 5544 5553 5551 5549 5546 5544 5541 5543 5547 5549 5545 5538 5541 5548 5548 5545 5543 5542 5541 5541 5540 5539 5539 5538 5536 5536 5536 5535 5534 5532 5529 5528 5526 5524 5521 5518 5515 5515 5514 5514 5514 5514 5514
5535 5540 5544 5539 5534 5533 5532 5529 5531 5531 5531 5529 5523 5527 5535 5536 5534 5534 5533 5532 5531 5530 5528 5528 5526 5525 5524 5524 5524 5524 5522 5520 5518 5515 5512 5509 5505 5504 5503 5502 5502 5502 5502 5502
5522 5530 5531 5526 5523 5521 5519 5524 5522 5518 5510 5506 5510 5508 5524 5523 5522 5524 5522 5521 5520 5520 5518 5516 5515 5513 5513 5514 5513 5513 5511 5509 5506 5504 5502 5500 5498 5496 5494 5493 5491 5490 5490 5490
5513 5516 5516 5515 5515 5513 5511 5513 5510 5508 5500 5493 5494 5492 5506 5510 5511 5512 5511 5510 5510 5508 5507 5505 5504 5504 5503 5503 5502 5501 5499 5497 5495 5493 5492 5490 5487 5485 5482 5480 5479 5478 5477 5477
5502 5506 5505 5505 5505 5504 5501 5499 5496 5489 5484 5486 5492 5484 5490 5492 5498 5500 5500 5499 5498 5496 5494 5494 5493 5492 5491 5489 5489 5487 5486 5484 5482 5481 5480 5478 5476 5473 5470 5468 5467 5465 5464 5464
5489 5491 5493 5493 5490 5490 5488 5482 5476 5474 5473 5482 5488 5477 5476 5484 5485 5486 5487 5486 5485 5484 5482 5481 5480 5479 5478 5476 5476 5475 5473 5471 5470 5469 5467 5466 5464 5462 5461 5458 5456 5454 5452 5452
5469 5474 5480 5479 5478 5475 5475 5474 5469 5464 5465 5471 5470 5466 5470 5473 5474 5475 5475 5473 5472 5471 5469 5469 5468 5466 5465 5464 5462 5462 5461 5459 5458 5456 5455 5453 5452 5450 5449 5447 5445 5444 5443 5442
5453 5462 5470 5469 5470 5469 5466 5460 5462 5454 5450 5450 5451 5452 5457 5461 5459 5459 5458 5455 5455 5455 5455 5455 5454 5452 5451 5450 5449 5448 5448 5446 5445 5444 5442 5441 5439 5438 5436 5435 5433 5432 5431 5430
5443 5443 5455 5456 5459 5458 5456 5452 5444 5446 5445 5445 5443 5439 5441 5442 5440 5440 5438 5437 5437 5439 5439 5439 5439 5438 5438 5437 5436 5435 5434 5433 5432 5431 5429 5429 5427 5425 5424 5423 5421 5420 5419 5417
5434 5432 5438 5441 5441 5444 5442 5440 5436 5431 5431 5433 5426 5429 5426 5422 5422 5421 5421 5419 5419 5422 5423 5423 5423 5423 5423 5423 5422 5420 5420 5419 5418 5417 5416 5415 5414 5412 5411 5410 5410 5408 5406 5405
5423 5418 5420 5429 5431 5430 5430 5425 5421 5423 5420 5412 5413 5414 5408 5404 5404 5404 5403 5404 5403 5405 5406 5406 5407 5407 5407 5407 5407 5407 5406 5405 5405 5404 5403 5402 5400 5399 5398 5397 5397 5396 5394 5393
5414 5407 5406 5419 5422 5414 5410 5408 5407 5405 5400 5392 5393 5400 5395 5388 5387 5388 5386 5385 5386 5388 5389 5389 5389 5389 5390 5390 5392 5392 5392 5392 5391 5390 5389 5387 5386 5385 5385 5384 5384 5383 5381 5380
5409 5395 5395 5399 5404 5397 5393 5391 5391 5389 5384 5380 5384 5386 5381 5372 5371 5371 5369 5368 5368 5369 5371 5372 5372 5373 5373 5373 5375 5377 5377 5377 5377 5376 5375 5374 5373 5371 5371 5371 5370 5369 5368 5367
5392 5384 5383 5384 5387 5385 5383 5381 5379 5375 5373 5371 5372 5369 5363 5356 5355 5354 5353 5353 5355 5355 5356 5357 5357 5357 5357 5357 5359 5361 5362 5362 5362 5362 5361 5360 5359 5358 5357 5357 5357 5356 5355 5355
5376 5373 5373 5373 5375 5371 5367 5364 5364 5362 5357 5355 5356 5352 5341 5338 5337 5336 5336 5338 5340 5340 5341 5341 5342 5342 5342 5342 5343 5344 5345 5347 5347 5347 5347 5346 5345 5344 5344 5343 5344 5343 5343 5342
5362 5360 5361 5363 5362 5360 5352 5346 5344 5341 5333 5332 5335 5329 5324 5324 5325 5323 5323 5323 5324 5324 5325 5325 5325 5325 5326 5326 5328 5328 5329 5331 5333 5333 5333 5333 5332 5331 5331 5331 5331 5331 5330 5330
5353 5350 5345 5343 5346 5340 5339 5329 5328 5323 5313 5309 5311 5310 5308 5308 5308 5309 5308 5307 5307 5308 5309 5309 5310 5311 5312 5312 5313 5314 5315 5316 5318 5320 5320 5320 5319 5319 5318 5318 5319 5318 5318 5318
5347 5342 5333 5329 5325 5328 5328 5318 5310 5309 5305 5293 5294 5296 5296 5297 5300 5301 5298 5294 5293 5294 5294 5295 5296 5297 5298 5299 5300 5301 5302 5303 5304 5306 5306 5307 5307 5307 5306 5306 5307 5307 5307 5307
5333 5329 5324 5317 5318 5319 5314 5302 5300 5299 5296 5284 5281 5281 5281 5283 5287 5290 5286 5282 5281 5282 5282 5283 5285 5285 5286 5287 5288 5289 5290 5291 5292 5293 5294 5295 5295 5296 5296 5296 5295 5295 5296 5297
5316 5309 5304 5303 5299 5298 5287 5287 5293 5288 5283 5271 5268 5268 5267 5266 5266 5268 5269 5270 5271 5270 5270 5271 5273 5273 5274 5275 5276 5277 5278 5279 5280 5281 5282 5284 5284 5285 5286 5285 5285 5285 5285 5285
5297 5292 5285 5286 5287 5288 5274 5273 5268 5265 5261 5258 5257 5257 5256 5256 5257 5257 5258 5259 5260 5260 5260 5259 5260 5261 5262 5263 5263 5265 5267 5268 5269 5270 5272 5273 5273 5274 5275 5275 5274 5274 5273 5273
5280 5277 5274 5273 5275 5268 5260 5256 5252 5249 5247 5247 5246 5246 5246 5246 5246 5247 5247 5247 5247 5247 5248 5248 5248 5249 5250 5251 5252 5253 5256 5257 5259 5260 5261 5262 5263 5264 5264 5264 5264 5263 5263 5263
5266 5262 5260 5256 5259 5253 5248 5243 5240 5237 5236 5236 5235 5234 5234 5234 5235 5234 5235 5235 5235 5235 5235 5236 5236 5237 5239 5239 5240 5242 5244 5246 5247 5249 5250 5251 5252 5253 5253 5254 5255 5254 5254 5254
5254 5250 5247 5243 5242 5239 5240 5233 5230 5227 5225 5224 5224 5223 5222 5222 5222 5221 5221 5221 5222 5223 5224 5224 5224 5226 5227 5229 5230 5232 5233 5235 5236 5238 5240 5241 5242 5242 5243 5244 5244 5245 5246 5246
5236 5234 5232 5235 5232 5226 5227 5223 5220 5217 5215 5214 5213 5213 5212 5211 5210 5210 5209 5210 5210 5211 5212 5213 5214 5215 5217 5218 5220 5221 5223 5224 5225 5228 5229 5230 5231 5232 5233 5234 5235 5236 5237 5238